Погода в Челябинске

Погода в Челябинске : погода сейчас, прогноз погоды и архив. Всё, что Вы хотите узнать о погоде в Челябинске!

Хотите узнать прогноз погоды в Челябинске? Тогда Вам сюда: Погода в Челябинске

Поиск расширенной информации на нашем сайте:

Другие новости

Новости СМИ2

Главная страница сайта

Новости сайта

03.07.2017

Напоминаем, что на нашем специализированном сайте Метеоцентр.Азия вы можете получить высокодетализированные автоматические прогнозы погоды по пунктам России, СНГ и мира в авиационном формате (включающие направление и скорость ветра, видимость, явления погоды, количество и форму облачности, нижнюю и верхнюю границу облачности).

Рекомендуем: лучшие строительные порталы Москвы

Погода в Челябинске - сегодня

Время (UTC), дата Ветер
(°,м/с) 
Видим.   Явления Облачность Т
(°С)
Тd
(°С)
f(%) Тe
(°С)
Pmin
(гПа)
dP
(гПа)
Po
(мм)
O2
(г/м3)
Тmin Tmax R s Состояние
почвы
18 14.02.18 320 (СЗ) 4000 м    ясно 
-11.7 -16.3 69 -15  1029.4  1.1  749  316           
21 14.02.18 330 (СЗ) 4000 м    ясно 
-12.4 -16.2 73 -14  1029.4  749  317           
00 15.02.18 320 (СЗ) 4000 м  слаб. ливневой снег  10/10 300 м кучево-дожд. 
[Cb calv]
-10.8 -14.2 76 -14  1029.6  0.4  749  315           
03 15.02.18 320 (СЗ) 4000 м  слаб. ливневой снег  10/10 300 м кучево-дожд. 
[Cb calv]
-9.3 -12.2 79 -12  1030.4  750  314  -13    0.0  20  равномерный
сухой снег
100% 
06 15.02.18 320 (СЗ) 4000 м  слаб. ливневой снег  10/10 300 м кучево-дожд. 
[Cb calv]
-7.8 -11.4 75 -11  1031.9  1.5  751  312           
09 15.02.18 320 (СЗ) 20000 м  в посл. час ливневой снег  ясно 
-4.4 -10.9 60 -8  1032.3  0.9  751  309           
12 15.02.18 310 (СЗ) 20000 м  {ливн. осадки}  ясно 
-5.1 -11 63 -7  1033.5  1.1  752  310           
18 15.02.18 310 (СЗ) 4000 м    6/6 300 м кучево-дожд. 
[Cb calv]
-7.1 -11.4 71 -10  1035.6  0.6  753  313           
21 15.02.18 310 (СЗ) 4000 м  слаб. ливневой снег  10/10 300 м кучево-дожд. 
[Cb calv]
-6.9 -9.8 80 -8  1036.2  0.6  754  313           
00 16.02.18 320 (СЗ) 4000 м  {ливн. осадки}  10/10 300 м кучево-дожд. 
[Cb calv]
-6.5 -10.6 73 -9  1036.8  0.8  755  312           
06 16.02.18 330 (СЗ) 10 км  в посл. час ливневой снег  8/4 300 м верхняя 
[Cu med, cong|Ci sp]
-5.6 -10 71 -7  1038.2  0.9  756  312           
09 16.02.18 340 (С) 20000 м    8/4 300 м верхняя 
[Cu med, cong|Ci sp]
-3.3 -10.9 56 -4  1038.2  0.2  756  309           
12 16.02.18 350 (С) 20000 м    10/5 300 м верхняя 
[Cu med, cong|Ci sp]
-4.4 -11.1 59 -6  1038.7  0.4  756  311           
15 16.02.18 260 (З) 4000 м    ясно 
-11 -13.2 84 -11  1040.4  0.2  757  319    -2.8  0.0     
18 16.02.18 170 (Ю) 4000 м    ясно 
-18.1 -20.7 80 -18  1041.5  0.2  757  328           
21 16.02.18 160 (Ю) 4000 м    ясно 
-19.6 -22.4 78 -20  1042.3  0.4  757  330           
00 17.02.18 160 (Ю) 4000 м    ясно 
-20.8 -23.8 77 -21  1042.7  0.3  757  332           
06 17.02.18 тихо ()   20000 м    ясно 
-16.2 -18.8 80 -16  1042.7  0.3  758  326           
09 17.02.18 310 (СЗ) 20000 м    5/0 верхняя 
[Ci fib]
-2.8 -12.5 47 -2  1040.7  -0.5  758  310           
12 17.02.18 280 (З) 20000 м    5/0 верхняя 
[Ci fib]
-4 -12 54 -4  1039.8  -0.9  757  311           
15 17.02.18 тихо ()   4000 м    ясно 
-9.9 -14.1 71 -10  1040.2  -0.3  757  318    -2.6       
18 17.02.18 210 (ЮЗ) 4000 м    ясно 
-13.8 -15.8 85 -14  1040.4  -0.3  756  322           
21 17.02.18 150 (ЮВ) 4000 м    ясно 
-17.4 -20 80 -18  1040.3  -0.5  756  327           
00 18.02.18 140 (ЮВ) 4000 м    ясно 
-18.3 -21 79 -19  1040.2  -0.2  756  328           
06 18.02.18 130 (ЮВ) 20000 м    8/0 средняя 
[Ac trans]
-11.9 -14.8 79 -12  1039.4  756  320           
Время (UTC), дата Ветер
(°,м/с) 
Видим.   Явления Облачность Т
(°С)
Тd
(°С)
f(%) Тe
(°С)
Pmin
(гПа)
dP
(гПа)
Po
(мм)
O2
(г/м3)
Тmin Tmax R s Состояние
почвы

Для получения пояснительной информации подведите курсор к названию столбца.

ПОГОДА в Челябинске - архив

Всё, что Вы хотите узнать о погоде в Челябинске - удобно и подробно!

Выберите нужную дату (начиная с 1 января 2015* года) и нажмите кнопку "Найти".
Будут отображены архивные сводки погоды по пункту Челябинск, начиная с указанной даты.


Отображать данные в формате CSV (для использования в таблицах Excel)


Внимание! Наш архив погоды предназначен исключительно для личного некоммерческого использования в познавательных целях. Если Вам необходимы официальные справки о состоянии погоды (для производственных, юридических, коммерческих и т.п. целей), обращайтесь в органы Росгидромета.

*Примечание: данная дата относится к архиву по метеостанциям СССР (Россия, СНГ, Балтия).
Архив по метеостанциям Зарубежной Европы и Азии (кроме Китая) хранится 10 дней, по другим регионам земного шара (Китай, Африка, Америка, Австралия, Океания) - 1 день.

Челябинск - район местоположения метеостанции


Название, широта, долгота, высота метеостанции:
Челябинск (город) 55.2°ш. 61.3°д. 237 м над ур. моря [Российская Федерация]

Дополнительная информация

В oтличие oт бoльшинства пoгoдных сайтoв мы публикуем пoдрoбную метеoинфoрмацию в детальнoм прoфессиoнальнoм фoрмате.

Характеристики температуры и влажнoсти вoздуха измеряются на высoте 2 м в тени вдали oт зданий и деревьев.
Скoрoсть ветра измеряется на высoте 10 м (на урoвне рoста челoвека скoрoсть ветра ниже в 1.5-2 раза). Если метеoстанция нахoдится в гoрoде или в лесу, тo скoрoсть ветра занижена на 2-4 м/с пo сравнению с oткрытым местoм. Скoрoсть ветра над акватoриями крупных рек и oзёр, а также на вершинах хoлмoв на 2-5 м/с выше, чем в oбычных услoвиях.
Атмoсфернoе давление в разных тoчках местнoсти мoжет значительнo oтличаться oт давления на метеoстанции, в зависимoсти oт услoвий рельефа (при пoдъёме на 10 м давление пoнижается примернo на 1 мм рт.ст.).